カタログに戻る

THOR DELTA 1 DEB

運用中PO
NORAD 33515·DEBRIS·🇺🇸 United States

打ち上げ Apr 1, 1971 から Vandenberg Space Force Base

Loading…

次のパス (今後24時間)

TLE

経年Source: Space-Track

元期: Sep 9, 2026, 16:14 UTC

1 33515U 71024F   26252.67701598  .00000596  00000-0  22640-2 0  9997
2 33515  88.1404 215.7549 0037714  23.9089  98.2385 12.88952355261428

AllMySatでTHOR DELTA 1 DEBをリアルタイム追跡

Download on the App Store